Location: Unspecified
(0.0000°N, 0.0000°E)
Time: 12:29:14
(UTC+00:00)

Envisat - Pass Details

Date: 16 August 2017
Orbit: 764 x 766 km, 98.2° (Epoch: 18 December)

Event Time Altitude Azimuth Distance (km) Brightness Sun altitude
Exits shadow 20:38:13 14° 341° (NNW) 2,040 5.5 -37.3°
Drops below altitude 10° 20:38:52 10° 342° (NNW) 2,291 5.8 -37.4°
Sets 20:41:10 0° 344° (NNW) 3,214 6.6 -38.0°
